Weather History for KORS - September, 2013

Change the Weather History Date:

Thursday, September 5, 2013

  Actual Average (KBLI) Record (KBLI)
Temperature  
Mean Temperature 58 °F 60 °F  
Max Temperature 64 °F 69 °F 86 °F (1973)
Min Temperature 53 °F 50 °F 39 °F (1956)
Degree Days  
Heating Degree Days 6 5  
Month to date heating degree days 24  
Cooling Degree Days 0 0  
Month to date cooling degree days 0  
Year to date cooling degree days 40  
Growing Degree Days 8 (Base 50)    
Moisture  
Dew Point 58 °F    
Average Humidity 92    
Maximum Humidity 100    
Minimum Humidity 77    
Precipitation  
Precipitation 0.02 in 0.06 in 1.14 in (1984)
Month to date precipitation 0.28  
Year to date precipitation 20.63  
Sea Level Pressure  
Sea Level Pressure 29.99 in    
Wind  
Wind Speed 1 mph (NNW)    
Max Wind Speed 6 mph    
Max Gust Speed -    
Visibility 10 miles    
Events Rain    
T = Trace of Precipitation, MM = Missing Value Source: NWS Daily Summary

Daily Weather History Graph

Daily Weather History Graph

Search for Another Location

Airport or City:

Trip Planner

Search our weather history database for the weather conditions in past years. The results will help you decide how hot, cold, wet, or windy it might be!

Date:

Astronomy

Sep. 05, 2013 Rise Set
Actual Time 6:34 AM PDT 7:44 PM PDT
Civil Twilight 6:02 AM PDT 8:16 PM PDT
Nautical Twilight 5:23 AM PDT 8:55 PM PDT
Astronomical Twilight 4:41 AM PDT 9:37 PM PDT
Moon 6:57 AM PDT (9/5) 7:30 PM PDT (9/5)
Length of Visible Light 14h 14m
Length of Day
13h 09m
New Moon, 0% of the Moon is Illuminated
Sep 5
New Moon
Sep 12
First Quarter
Sep 19
Full
Sep 26
Last Quarter
Oct 4
New

Hourly Weather History & Observations

Time (PDT) Temp. Dew Point Humidity Pressure Visibility Wind Dir Wind Speed Gust Speed Precip Events Conditions
12:15 AM 60.8 °F 57.2 °F 88% 30.02 in 10.0 mi South 3.5 mph - N/A   Partly Cloudy
12:35 AM 57.2 °F 57.2 °F 100% 30.03 in 10.0 mi Calm Calm - N/A   Clear
12:55 AM 57.2 °F 55.4 °F 94% 30.03 in 10.0 mi Calm Calm - N/A   Partly Cloudy
1:15 AM 57.2 °F 57.2 °F 100% 30.03 in 10.0 mi Calm Calm - N/A   Clear
1:35 AM 55.4 °F 55.4 °F 100% 30.02 in 8.0 mi Calm Calm - N/A   Clear
1:55 AM 55.4 °F 55.4 °F 100% 30.02 in 9.0 mi Calm Calm - N/A   Clear
2:15 AM 55.4 °F 55.4 °F 100% 30.02 in 10.0 mi Calm Calm - N/A   Clear
2:35 AM 57.2 °F 57.2 °F 100% 30.02 in 10.0 mi Calm Calm - N/A   Clear
2:55 AM 55.4 °F 55.4 °F 100% 30.01 in 10.0 mi Calm Calm - N/A   Clear
3:15 AM 55.4 °F 55.4 °F 100% 30.00 in 10.0 mi Calm Calm - N/A   Clear
3:35 AM 55.4 °F 55.4 °F 100% 30.00 in 10.0 mi Calm Calm - N/A   Clear
3:55 AM 55.4 °F 55.4 °F 100% 30.01 in 10.0 mi Calm Calm - N/A   Clear
4:15 AM 55.4 °F 55.4 °F 100% 30.01 in 8.0 mi Calm Calm - N/A   Clear
4:35 AM 53.6 °F 53.6 °F 100% 30.01 in 10.0 mi Calm Calm - N/A   Clear
4:55 AM 55.4 °F 55.4 °F 100% 30.00 in 9.0 mi Calm Calm - N/A   Clear
5:15 AM 55.4 °F 55.4 °F 100% 30.00 in 10.0 mi Calm Calm - N/A   Clear
5:35 AM 55.4 °F 55.4 °F 100% 30.00 in 10.0 mi Calm Calm - N/A   Clear
5:55 AM 55.4 °F 55.4 °F 100% 30.01 in 9.0 mi Calm Calm - N/A   Clear
6:15 AM 55.4 °F 55.4 °F 100% 30.01 in 8.0 mi Calm Calm - N/A   Clear
6:35 AM 55.4 °F 55.4 °F 100% 30.01 in 9.0 mi Calm Calm - N/A   Clear
6:55 AM 55.4 °F 55.4 °F 100% 30.01 in 8.0 mi Calm Calm - N/A   Clear
7:15 AM 55.4 °F 55.4 °F 100% 30.03 in 9.0 mi Calm Calm - N/A   Clear
7:35 AM 57.2 °F 57.2 °F 100% 30.03 in 9.0 mi Calm Calm - N/A   Clear
7:55 AM 57.2 °F 57.2 °F 100% 30.04 in 10.0 mi SSW 4.6 mph - N/A Rain Light Rain
8:15 AM 59.0 °F 59.0 °F 100% 30.03 in 9.0 mi Calm Calm - N/A   Clear
8:35 AM 59.0 °F 59.0 °F 100% 30.03 in 10.0 mi Calm Calm - N/A   Clear
8:55 AM 62.6 °F 59.0 °F 88% 30.03 in 10.0 mi Calm Calm - N/A   Clear
9:15 AM 62.6 °F 59.0 °F 88% 30.03 in 10.0 mi Calm Calm - N/A   Clear
9:35 AM 62.6 °F 59.0 °F 88% 30.04 in 10.0 mi Calm Calm - N/A   Clear
9:55 AM 62.6 °F 59.0 °F 88% 30.03 in 10.0 mi Calm Calm - N/A   Partly Cloudy
10:15 AM 62.6 °F 59.0 °F 88% 30.03 in 10.0 mi Calm Calm - N/A   Partly Cloudy
10:35 AM 62.6 °F 59.0 °F 88% 30.04 in 10.0 mi Calm Calm - N/A   Clear
10:55 AM 62.6 °F 59.0 °F 88% 30.04 in 10.0 mi Calm Calm - N/A Rain Light Rain
11:15 AM 62.6 °F 59.0 °F 88% 30.04 in 9.0 mi Calm Calm - N/A Rain Light Rain
11:35 AM 62.6 °F 59.0 °F 88% 30.03 in 7.0 mi Calm Calm - N/A Rain Light Rain
11:55 AM 62.6 °F 59.0 °F 88% 30.04 in 10.0 mi Calm Calm - N/A Rain Light Rain
12:15 PM 60.8 °F 59.0 °F 94% 30.03 in 10.0 mi North 4.6 mph - N/A   Overcast
12:35 PM 60.8 °F 59.0 °F 94% 30.02 in 10.0 mi NNW 3.5 mph - N/A   Overcast
12:55 PM 62.6 °F 59.0 °F 88% 30.02 in 10.0 mi North 4.6 mph - N/A   Scattered Clouds
1:15 PM 62.6 °F 59.0 °F 88% 30.02 in 10.0 mi North 4.6 mph - N/A   Partly Cloudy
1:35 PM 60.8 °F 59.0 °F 94% 30.01 in 10.0 mi North 5.8 mph - N/A Rain Light Rain
1:55 PM 60.8 °F 59.0 °F 94% 30.00 in 8.0 mi NNE 4.6 mph - N/A Rain Light Rain
2:15 PM 60.8 °F 59.0 °F 94% 30.00 in 2.5 mi Calm Calm - 0.02 in Rain Heavy Rain
2:35 PM 62.6 °F 60.8 °F 94% 30.00 in 9.0 mi Calm Calm - 0.02 in Rain Light Rain
2:55 PM 62.6 °F 60.8 °F 94% 30.01 in 10.0 mi NW 3.5 mph - 0.02 in   Partly Cloudy
3:15 PM 62.6 °F 59.0 °F 88% 29.99 in 10.0 mi North 5.8 mph - N/A   Partly Cloudy
3:35 PM 64.4 °F 59.0 °F 83% 29.99 in 10.0 mi WNW 4.6 mph - N/A   Scattered Clouds
3:55 PM 64.4 °F 59.0 °F 83% 29.97 in 10.0 mi Calm Calm - N/A   Partly Cloudy
4:15 PM 64.4 °F 59.0 °F 83% 29.97 in 10.0 mi Calm Calm - N/A   Partly Cloudy
4:35 PM 64.4 °F 59.0 °F 83% 29.97 in 10.0 mi North 3.5 mph - N/A   Clear
4:55 PM 64.4 °F 59.0 °F 83% 29.97 in 10.0 mi North 3.5 mph - N/A   Clear
5:15 PM 64.4 °F 59.0 °F 83% 29.96 in 10.0 mi Calm Calm - N/A   Clear
5:35 PM 64.4 °F 59.0 °F 83% 29.95 in 10.0 mi Calm Calm - N/A Rain Light Rain
5:55 PM 64.4 °F 59.0 °F 83% 29.94 in 10.0 mi Calm Calm - N/A   Clear
6:15 PM 64.4 °F 59.0 °F 83% 29.94 in 10.0 mi Calm Calm - N/A   Clear
6:35 PM 64.4 °F 59.0 °F 83% 29.94 in 9.0 mi Calm Calm - N/A   Clear
6:55 PM 64.4 °F 59.0 °F 83% 29.94 in 10.0 mi Calm Calm - N/A   Clear
7:15 PM 64.4 °F 57.2 °F 77% 29.92 in 10.0 mi Calm Calm - N/A   Clear
7:35 PM 64.4 °F 59.0 °F 83% 29.91 in 10.0 mi Calm Calm - N/A   Clear
7:55 PM 62.6 °F 59.0 °F 88% 29.91 in 10.0 mi Calm Calm - N/A   Clear
8:15 PM 64.4 °F 57.2 °F 77% 29.92 in 10.0 mi Calm Calm - N/A   Clear
8:35 PM 62.6 °F 59.0 °F 88% 29.92 in 10.0 mi Calm Calm - N/A   Partly Cloudy
8:55 PM 62.6 °F 59.0 °F 88% 29.92 in 10.0 mi Calm Calm - N/A   Scattered Clouds
9:15 PM 62.6 °F 59.0 °F 88% 29.92 in 10.0 mi Calm Calm - N/A   Partly Cloudy
9:35 PM 62.6 °F 59.0 °F 88% 29.92 in 10.0 mi Calm Calm - N/A   Clear
9:55 PM 62.6 °F 59.0 °F 88% 29.91 in 10.0 mi SSW 3.5 mph - N/A   Clear
10:15 PM 62.6 °F 59.0 °F 88% 29.92 in 10.0 mi Calm Calm - N/A   Clear
10:35 PM 62.6 °F 57.2 °F 82% 29.92 in 10.0 mi Calm Calm - N/A   Clear
10:55 PM 62.6 °F 59.0 °F 88% 29.91 in 10.0 mi Calm Calm - N/A   Clear
11:15 PM 62.6 °F 59.0 °F 88% 29.91 in 10.0 mi Calm Calm - N/A   Clear
11:35 PM 62.6 °F 59.0 °F 88% 29.91 in 10.0 mi Calm Calm - N/A   Clear
11:55 PM 60.8 °F 59.0 °F 94% 29.91 in 10.0 mi Calm Calm - N/A   Clear